Location: Unspecified
(0.0000°N, 0.0000°E)
Time: 09:12:55
(UTC+00:00)

Telstar 2 - Visible Passes

Search period start: 10 April 2026 00:00
Search period end: 20 April 2026 00:00
Orbit: 971 x 10799 km, 42.8° (Epoch: 9 April)

Date Brightness Start Highest point End Pass type
(mag) Time Alt. Az. Time Alt. Az. Time Alt. Az.
10 Apr 10.7 02:06:33 77° N 02:09:32 82° NE 03:22:59 10° SE visible
11 Apr 11.3 00:39:00 44° E 00:39:00 44° E 01:24:41 10° SE visible
11 Apr 11.3 04:24:24 26° W 04:50:02 50° SW 06:16:38 10° SE visible
11 Apr 12.0 23:11:26 14° E 23:11:26 14° E 23:18:05 10° E visible
12 Apr 10.8 02:56:51 63° W 03:04:20 74° SW 04:25:36 10° SE visible
13 Apr 11.0 01:29:18 69° E 01:29:18 69° E 02:31:27 10° SE visible
13 Apr 11.7 05:14:42 11° W 05:56:11 37° SSW 07:19:03 10° SE visible
14 Apr 11.7 00:01:43 31° E 00:01:43 31° E 00:31:34 10° ESE visible
14 Apr 11.1 03:47:07 41° W 04:02:30 54° SW 05:27:40 10° SE visible
15 Apr 10.9 02:19:32 80° SW 02:19:32 80° SW 03:35:06 10° SE visible
16 Apr 11.4 00:51:55 52° ESE 00:51:55 52° ESE 01:39:29 10° SE visible
16 Apr 11.5 04:37:20 23° W 05:05:50 40° SSW 06:30:50 10° SE visible
16 Apr 12.0 23:24:18 20° E 23:24:18 20° E 23:38:46 10° ESE visible
17 Apr 11.1 03:09:42 55° WSW 03:15:52 58° SW 04:37:51 10° SE visible
18 Apr 11.2 01:42:04 69° SSE 01:42:04 69° SSE 02:43:59 10° SE visible
18 Apr 11.9 05:29:04 10° WSW 06:20:37 30° SSW 07:35:29 10° SE visible
19 Apr 11.7 00:14:24 37° ESE 00:14:24 37° ESE 00:47:22 10° SE visible
19 Apr 11.4 03:59:47 35° WSW 04:16:54 43° SSW 05:41:39 10° SE visible
19 Apr 11.1 22:46:43 10° ESE 22:46:43 10° ESE 22:13:54 - N visible
